Time,TemperatureF,DewpointF,PressureIn,WindDirection,WindDirectionDegrees,WindSpeedMPH,WindSpeedGustMPH,Humidity,HourlyPrecipIn,Conditions,Clouds,dailyrainin,SolarRadiationWatts/m^2,SoftwareType,DateUTC
2013-02-04 00:01:00,-2.0,-8.0,-100.00,West,259,3.0,5.0,74,0.00,,,0.00,0.000000,,2013-02-04 06:01:00,
2013-02-04 00:21:00,-2.0,-8.0,-100.00,West,259,3.0,5.0,74,0.00,,,0.00,0.000000,,2013-02-04 06:21:00,
2013-02-04 00:32:00,-2.0,-8.0,-100.00,West,259,3.0,5.0,74,0.00,,,0.00,0.000000,,2013-02-04 06:32:00,
2013-02-04 00:42:00,-2.0,-8.0,-100.00,West,259,3.0,5.0,74,0.00,,,0.00,0.000000,,2013-02-04 06:42:00,
2013-02-04 00:52:00,-2.0,-8.0,-100.00,West,259,3.0,5.0,74,0.00,,,0.00,0.000000,,2013-02-04 06:52:00,
2013-02-04 01:01:00,-10.0,-17.0,-100.00,WSW,256,2.0,4.0,71,0.00,,,0.00,0.000000,,2013-02-04 07:01:00,
2013-02-04 01:32:00,-10.0,-17.0,-100.00,WSW,256,2.0,4.0,71,0.00,,,0.00,0.000000,,2013-02-04 07:32:00,
2013-02-04 01:42:00,-10.0,-17.0,-100.00,WSW,256,2.0,4.0,71,0.00,,,0.00,0.000000,,2013-02-04 07:42:00,
2013-02-04 01:52:00,-10.0,-17.0,-100.00,WSW,256,2.0,4.0,71,0.00,,,0.00,0.000000,,2013-02-04 07:52:00,
2013-02-04 02:32:00,-15.0,-23.0,-100.00,West,265,2.0,3.0,67,0.00,,,0.00,0.000000,,2013-02-04 08:32:00,
2013-02-04 03:32:00,-18.0,-25.0,-100.00,West,266,0.0,2.0,68,0.00,,,0.00,0.000000,,2013-02-04 09:32:00,
2013-02-04 03:42:00,-18.0,-25.0,-100.00,West,266,0.0,2.0,68,0.00,,,0.00,0.000000,,2013-02-04 09:42:00,
2013-02-04 03:52:00,-18.0,-25.0,-100.00,West,266,0.0,2.0,68,0.00,,,0.00,0.000000,,2013-02-04 09:52:00,
2013-02-04 04:32:00,-19.0,-27.0,-100.00,WSW,239,1.0,2.0,66,0.00,,,0.00,0.000000,,2013-02-04 10:32:00,
2013-02-04 05:01:00,-16.0,-23.0,-100.00,WSW,249,0.0,2.0,69,0.00,,,0.00,0.000000,,2013-02-04 11:01:00,
2013-02-04 05:33:00,-16.0,-23.0,-100.00,WSW,249,0.0,2.0,69,0.00,,,0.00,0.000000,,2013-02-04 11:33:00,
2013-02-04 05:42:00,-16.0,-23.0,-100.00,WSW,249,0.0,2.0,69,0.00,,,0.00,0.000000,,2013-02-04 11:42:00,
2013-02-04 05:52:00,-16.0,-23.0,-100.00,WSW,249,0.0,2.0,69,0.00,,,0.00,0.000000,,2013-02-04 11:52:00,
2013-02-04 06:01:00,-13.0,-20.0,-100.00,WSW,254,2.0,3.0,69,0.00,,,0.00,0.000000,,2013-02-04 12:01:00,
2013-02-04 06:22:00,-13.0,-20.0,-100.00,WSW,254,2.0,3.0,69,0.00,,,0.00,0.000000,,2013-02-04 12:22:00,
2013-02-04 06:33:00,-13.0,-20.0,-100.00,WSW,254,2.0,3.0,69,0.00,,,0.00,0.000000,,2013-02-04 12:33:00,
2013-02-04 06:42:00,-13.0,-20.0,-100.00,WSW,254,2.0,3.0,69,0.00,,,0.00,0.000000,,2013-02-04 12:42:00,
2013-02-04 06:53:00,-13.0,-20.0,-100.00,WSW,254,2.0,3.0,69,0.00,,,0.00,0.000000,,2013-02-04 12:53:00,
2013-02-04 07:01:00,-17.0,-25.0,-100.00,WSW,237,2.0,4.0,67,0.00,,,0.00,0.000000,,2013-02-04 13:01:00,
2013-02-04 07:22:00,-17.0,-25.0,-100.00,WSW,237,2.0,4.0,67,0.00,,,0.00,0.000000,,2013-02-04 13:22:00,
2013-02-04 07:33:00,-17.0,-25.0,-100.00,WSW,237,2.0,4.0,67,0.00,,,0.00,0.000000,,2013-02-04 13:33:00,
2013-02-04 07:42:00,-17.0,-25.0,-100.00,WSW,237,2.0,4.0,67,0.00,,,0.00,0.000000,,2013-02-04 13:42:00,
2013-02-04 07:52:00,-17.0,-25.0,-100.00,WSW,237,2.0,4.0,67,0.00,,,0.00,0.000000,,2013-02-04 13:52:00,
2013-02-04 08:01:00,-18.0,-26.0,-100.00,West,262,1.0,3.0,66,0.00,,,0.00,19.000000,,2013-02-04 14:01:00,
2013-02-04 08:33:00,-18.0,-26.0,-100.00,West,262,1.0,3.0,66,0.00,,,0.00,19.000000,,2013-02-04 14:33:00,
2013-02-04 08:42:00,-18.0,-26.0,-100.00,West,262,1.0,3.0,66,0.00,,,0.00,19.000000,,2013-02-04 14:42:00,
2013-02-04 08:52:00,-18.0,-26.0,-100.00,West,262,1.0,3.0,66,0.00,,,0.00,19.000000,,2013-02-04 14:52:00,
2013-02-04 09:01:00,-1.0,-8.0,-100.00,West,259,3.0,5.0,72,0.00,,,0.00,182.000000,,2013-02-04 15:01:00,
2013-02-04 09:33:00,-1.0,-8.0,-100.00,West,259,3.0,5.0,72,0.00,,,0.00,182.000000,,2013-02-04 15:33:00,
2013-02-04 12:01:00,10.0,-3.0,-100.00,West,281,5.0,9.0,56,-99.99,,,0.00,437.000000,,2013-02-04 18:01:00,
2013-02-04 12:32:00,10.0,-3.0,-100.00,West,281,5.0,9.0,56,-99.99,,,0.00,437.000000,,2013-02-04 18:32:00,
2013-02-04 12:42:00,10.0,-3.0,-100.00,West,281,5.0,9.0,56,-99.99,,,0.00,437.000000,,2013-02-04 18:42:00,
2013-02-04 12:52:00,10.0,-3.0,-100.00,West,281,5.0,9.0,56,-99.99,,,0.00,437.000000,,2013-02-04 18:52:00,
2013-02-04 13:01:00,11.0,-5.0,-100.00,WNW,291,6.0,11.0,48,0.00,,,0.00,517.000000,,2013-02-04 19:01:00,
2013-02-04 13:22:00,11.0,-5.0,-100.00,WNW,291,6.0,11.0,48,0.00,,,0.00,517.000000,,2013-02-04 19:22:00,
2013-02-04 13:32:00,11.0,-5.0,-100.00,WNW,291,6.0,11.0,48,0.00,,,0.00,517.000000,,2013-02-04 19:32:00,
2013-02-04 13:42:00,11.0,-5.0,-100.00,WNW,291,6.0,11.0,48,0.00,,,0.00,517.000000,,2013-02-04 19:42:00,
2013-02-04 13:52:00,11.0,-5.0,-100.00,WNW,291,6.0,11.0,48,0.00,,,0.00,517.000000,,2013-02-04 19:52:00,
2013-02-04 14:01:00,13.0,-4.0,-100.00,WNW,286,5.0,11.0,46,0.00,,,0.00,487.000000,,2013-02-04 20:01:00,
2013-02-04 14:22:00,13.0,-4.0,-100.00,WNW,286,5.0,11.0,46,0.00,,,0.00,487.000000,,2013-02-04 20:22:00,
2013-02-04 14:32:00,13.0,-4.0,-100.00,WNW,286,5.0,11.0,46,0.00,,,0.00,487.000000,,2013-02-04 20:32:00,
2013-02-04 14:42:00,13.0,-4.0,-100.00,WNW,286,5.0,11.0,46,0.00,,,0.00,487.000000,,2013-02-04 20:42:00,
2013-02-04 14:52:00,13.0,-4.0,-100.00,WNW,286,5.0,11.0,46,0.00,,,0.00,487.000000,,2013-02-04 20:52:00,
2013-02-04 15:01:00,13.0,-8.0,-100.00,WNW,293,6.0,10.0,38,0.00,,,0.00,368.000000,,2013-02-04 21:01:00,
2013-02-04 15:32:00,13.0,-8.0,-100.00,WNW,293,6.0,10.0,38,0.00,,,0.00,368.000000,,2013-02-04 21:32:00,
2013-02-04 15:43:00,13.0,-8.0,-100.00,WNW,293,6.0,10.0,38,0.00,,,0.00,368.000000,,2013-02-04 21:43:00,
2013-02-04 15:52:00,13.0,-8.0,-100.00,WNW,293,6.0,10.0,38,0.00,,,0.00,368.000000,,2013-02-04 21:52:00,
2013-02-04 16:01:00,11.0,-9.0,-100.00,WNW,285,6.0,11.0,40,0.00,,,0.00,214.000000,,2013-02-04 22:01:00,
2013-02-04 16:33:00,11.0,-9.0,-100.00,WNW,285,6.0,11.0,40,0.00,,,0.00,214.000000,,2013-02-04 22:33:00,
2013-02-04 16:42:00,11.0,-9.0,-100.00,WNW,285,6.0,11.0,40,0.00,,,0.00,214.000000,,2013-02-04 22:42:00,
2013-02-04 16:52:00,11.0,-9.0,-100.00,WNW,285,6.0,11.0,40,0.00,,,0.00,214.000000,,2013-02-04 22:52:00,
2013-02-04 17:01:00,7.0,-9.0,-100.00,WSW,257,2.0,10.0,48,0.00,,,0.00,66.000000,,2013-02-04 23:01:00,
2013-02-04 17:32:00,7.0,-9.0,-100.00,WSW,257,2.0,10.0,48,0.00,,,0.00,66.000000,,2013-02-04 23:32:00,
2013-02-04 17:42:00,7.0,-9.0,-100.00,WSW,257,2.0,10.0,48,0.00,,,0.00,66.000000,,2013-02-04 23:42:00,
2013-02-04 17:52:00,7.0,-9.0,-100.00,WSW,257,2.0,10.0,48,0.00,,,0.00,66.000000,,2013-02-04 23:52:00,
2013-02-04 18:01:00,-3.0,-9.0,-100.00,West,269,0.0,3.0,74,0.00,,,0.00,1.000000,,2013-02-05 00:01:00,
2013-02-04 18:32:00,-3.0,-9.0,-100.00,West,269,0.0,3.0,74,0.00,,,0.00,1.000000,,2013-02-05 00:32:00,
2013-02-04 19:01:00,-8.0,-14.0,-100.00,SW,236,0.0,2.0,73,0.00,,,0.00,0.000000,,2013-02-05 01:01:00,
2013-02-04 19:32:00,-8.0,-14.0,-100.00,SW,236,0.0,2.0,73,0.00,,,0.00,0.000000,,2013-02-05 01:32:00,
2013-02-04 20:01:00,-11.0,-17.0,-100.00,SW,218,0.0,0.0,74,0.00,,,0.00,0.000000,,2013-02-05 02:01:00,
2013-02-04 20:32:00,-11.0,-17.0,-100.00,SW,218,0.0,0.0,74,0.00,,,0.00,0.000000,,2013-02-05 02:32:00,
2013-02-04 20:42:00,-11.0,-17.0,-100.00,SW,218,0.0,0.0,74,0.00,,,0.00,0.000000,,2013-02-05 02:42:00,
2013-02-04 20:52:00,-11.0,-17.0,-100.00,SW,218,0.0,0.0,74,0.00,,,0.00,0.000000,,2013-02-05 02:52:00,
2013-02-04 21:32:00,-12.0,-18.0,-100.00,WSW,237,0.0,0.0,72,0.00,,,0.00,0.000000,,2013-02-05 03:32:00,
2013-02-04 21:42:00,-12.0,-18.0,-100.00,WSW,237,0.0,0.0,72,0.00,,,0.00,0.000000,,2013-02-05 03:42:00,
2013-02-04 21:52:00,-12.0,-18.0,-100.00,WSW,237,0.0,0.0,72,0.00,,,0.00,0.000000,,2013-02-05 03:52:00,
2013-02-04 22:01:00,-8.0,-14.0,-100.00,ENE,77,0.0,1.0,74,-99.99,,,0.00,0.000000,,2013-02-05 04:01:00,
2013-02-04 22:32:00,-8.0,-14.0,-100.00,ENE,77,0.0,1.0,74,-99.99,,,0.00,0.000000,,2013-02-05 04:32:00,
2013-02-04 22:42:00,-8.0,-14.0,-100.00,ENE,77,0.0,1.0,74,-99.99,,,0.00,0.000000,,2013-02-05 04:42:00,
2013-02-04 22:52:00,-8.0,-14.0,-100.00,ENE,77,0.0,1.0,74,-99.99,,,0.00,0.000000,,2013-02-05 04:52:00,
2013-02-04 23:01:00,-7.0,-13.0,-100.00,NNW,339,0.0,0.0,74,-99.99,,,0.00,0.000000,,2013-02-05 05:01:00,
2013-02-04 23:32:00,-7.0,-13.0,-100.00,NNW,339,0.0,0.0,74,-99.99,,,0.00,0.000000,,2013-02-05 05:32:00,
2013-02-04 23:42:00,-7.0,-13.0,-100.00,NNW,339,0.0,0.0,74,-99.99,,,0.00,0.000000,,2013-02-05 05:42:00,
2013-02-04 23:52:00,-7.0,-13.0,-100.00,NNW,339,0.0,0.0,74,-99.99,,,0.00,0.000000,,2013-02-05 05:52:00,